Regional Weather Roundup
Issued by NWS

Home | Current Version | Previous Version | Text Only | Print | Product List | Glossary Off
Versions: 1 2 3 4 5 6 7 8 9 10 11 12 13 14 15 16 17 18 19 20 21 22 23 24 25 26 27 28 29 30 31 32 33 34 35 36 37 38 39 40 41 42 43 44 45 46 47 48 49 50

000
ASUS43 KLMK 142210
RWRKY
KENTUCKY REGIONAL WEATHER ROUNDUP
NATIONAL WEATHER SERVICE LOUISVILLE KY
600 PM EDT SUN SEP 14 2014

NOTE "FAIR" INDICATES FEW OR NO CLOUDS BELOW 12,000 FEET
WITH NO SIGNIFICANT WEATHER AND/OR OBSTRUCTIONS TO VISIBILITY.

KYZ001>023-026-027-061>063-070>075-142300-
WESTERN AND SOUTH CENTRAL KENTUCKY

CITY           SKY/WX    TMP DP  RH WIND       PRES   REMARKS
PADUCAH        SUNNY     75  45  34 CALM      30.19S
HENDERSON      SUNNY     72  46  40 NE5       30.19S
OWENSBORO      SUNNY     73  48  41 VRB5      30.20S
HOPKINSVILLE   NOT AVBL
BOWLING GREEN  SUNNY     75  51  43 CALM      30.19S
GLASGOW        SUNNY     75  50  41 CALM      30.18S
$$

KYZ024-025-028>034-038-045-046-053-142300-
NORTH CENTRAL KENTUCKY

CITY           SKY/WX    TMP DP  RH WIND       PRES   REMARKS
LOUISVILLE/SDF SUNNY     75  48  38 N3        30.19F
LOUISVILLE/LOU SUNNY     71  48  43 NW3       30.20S
FORT KNOX      NOT AVBL
$$

KYZ035>037-039>044-047>052-055>060-089>105-142300-
NORTHEAST KENTUCKY

CITY           SKY/WX    TMP DP  RH WIND       PRES   REMARKS
LEXINGTON      SUNNY     72  50  45 N8        30.21S
COVINGTON      SUNNY     70  46  42 CALM      30.21S
FRANKFORT      SUNNY     72  46  39 CALM      30.20S
$$

KYZ054-064>069-076>088-106>120-142300-
SOUTHEAST KENTUCKY

CITY           SKY/WX    TMP DP  RH WIND       PRES   REMARKS
JACKSON        SUNNY     69  53  56 CALM      30.21S
LONDON         SUNNY     73  55  53 CALM      30.20F
SOMERSET       NOT AVBL
MIDDLESBORO    PTSUNNY   73  64  72 N5        30.19R
MONTICELLO     CLEAR     76  58  53 VRB3      30.20F
$$




USA.gov is the U.S. government's official web portal to all federal, state and local government web resources and services.